Flag for Canada Weather past 2 weeks in Greater Sudbury, Ontario, Canada

Now
9 °F

Sunny.


Feels Like: -6 °F
Forecast: -3 / 17 °F
Wind: 12 mph from Southwest

Location: Sudbury

Current Time: Feb 28, 2015 at 11:10:39 AM

Latest Report: Feb 28, 2015 at 10:00 AM


Visibility: 20 mi

Pressure: 30.62 "Hg

Humidity: 85%

Dew point: 5 °F

Location of Greater SudburyLocation

Historic Weather in Greater Sudbury — Graph

°F

Greater Sudbury temperature yesterday

Maximum temperature yesterday: 12 °F (at 3:00 PM)
Minimum temperature yesterday: -13 °F (at 4:00 AM)
Average temperature yesterday: -1 °F

Past Weeks' High & Low Weather Summary

 TemperatureHumidityPressure
High16 °F (Feb 21, 3:00 PM)92% (Feb 21, 7:00 PM)30.62 "Hg (Feb 21, 7:00 PM)
Low-26 °F (Feb 15, 7:00 AM)40% (Feb 15, 4:00 PM)29.39 "Hg (Feb 24, 5:00 PM)
Average-3 °F70%30.08 "Hg
* Reported Feb 13 9:00 AM — Feb 28 9:00 AM, Greater Sudbury, Weather by CustomWeather, © 2015

Note: Actual official high and low records may vary slightly from our data, if they occured in-between our weather recording intervals... More about our weather records

Advertising

Greater Sudbury weather history for previous 24 hours

 ConditionsComfort  
Time TempWeatherWind HumidityBarometerVisibility
9:00 AM
Sat, Feb 28
1 °FPassing clouds.7 mph85%30.62 "Hg15 mi
8:00 AM-2 °FPassing clouds.3 mph84%30.60 "Hg15 mi
7:00 AM-2 °FPassing clouds.3 mph84%30.59 "Hg20 mi
6:00 AM-2 °FClear.3 mph84%30.57 "Hg15 mi
5:00 AM-4 °FClear.3 mph84%30.55 "Hg15 mi
4:00 AM-2 °FClear.7 mph77%30.54 "Hg15 mi
3:00 AM-2 °FClear.7 mph84%30.54 "Hg15 mi
2:00 AM0 °FClear.8 mph78%30.53 "Hg15 mi
1:00 AM0 °FClear.7 mph78%30.52 "Hg15 mi
12:00 AM1 °FClear.9 mph78%30.51 "Hg15 mi
11:00 PM
Fri, Feb 27
3 °FClear.7 mph72%30.50 "Hg15 mi
10:00 PM5 °FPassing clouds.9 mph66%30.49 "Hg15 mi
9:00 PM5 °FClear.12 mph66%30.48 "Hg15 mi
8:00 PM5 °FClear.12 mph66%30.47 "Hg15 mi
7:00 PM7 °FClear.13 mph61%30.45 "Hg15 mi
6:00 PM9 °FSunny.14 mph56%30.43 "Hg20 mi
5:00 PM10 °FSunny.16 mph56%30.41 "Hg20 mi
4:00 PM12 °FSunny.17 mph57%30.41 "Hg20 mi
3:00 PM12 °FPassing clouds.16 mph52%30.40 "Hg20 mi
2:00 PM10 °FPassing clouds.15 mph52%30.40 "Hg20 mi
1:00 PM9 °FPassing clouds.13 mph56%30.41 "Hg20 mi
12:00 PM7 °FPassing clouds.10 mph56%30.42 "Hg20 mi
11:00 AM3 °FPassing clouds.9 mph60%30.41 "Hg20 mi
Weather by CustomWeather, © 2015

See weather overviewHow to use our weather pages